Location: Observatory Park - Geauga Park District
(41.5832°N, 81.0716°W)
Time: 17:48:42
(UTC-04:00)

N. Korean satellite - Pass Details

Date: 02 October 2021
Orbit: 450 x 495 km, 97.3° (Epoch: 15 October)

Event Time Altitude Azimuth Distance (km) Brightness Sun altitude
Rises 05:40:13 0° 32° (NNE) 2,552 10.9 -19.8°
Reaches altitude 10° 05:43:06 10° 59° (ENE) 1,675 10.4 -19.3°
Maximum altitude 05:45:05 14° 92° (E) 1,437 10.0 -18.9°
Drops below altitude 10° 05:47:04 10° 126° (SE) 1,678 9.9 -18.6°
Sets 05:49:57 0° 152° (SSE) 2,559 10.5 -18.0°
